Home   Weather   Governador Valadares   Past weeks
Flag for Brazil

Past Weather in Governador Valadares, Minas Gerais, Brazil — Yesterday and Last 2 Weeks

Now
64 °F

Sunny.


Feels Like: 64 °F
Forecast: 86 / 66 °F
Wind: 5 mph from Southeast

Location: Belo Horizonte Airport

Current Time: Mar 28, 2020 at 9:02:03 am

Latest Report: Mar 28, 2020 at 8:00 am


Visibility: 10 mi

Pressure: 30.12 "Hg

Humidity: 83%

Dew Point: 59 °F

Location of Governador ValadaresLocation

Past Weather in Governador Valadares — Graph

°F

Governador Valadares Temperature Yesterday

Maximum temperature yesterday: 77 °F (at 2:00 pm)
Minimum temperature yesterday: 64 °F (at 1:00 am)
Average temperature yesterday: 70 °F

High & Low Weather Summary for the Past Weeks

 TemperatureHumidityPressure
High88 °F (Mar 18, 3:00 pm)100% (Mar 19, 12:00 am)30.15 "Hg (Mar 19, 12:00 am)
Low59 °F (Mar 24, 6:00 am)43% (Mar 16, 2:00 pm)29.83 "Hg (Mar 20, 4:00 pm)
Average72 °F78%30.05 "Hg
* Reported Mar 13 8:00 am — Mar 28 8:00 am, Governador Valadares. Weather by CustomWeather, © 2020

Note: Actual official high and low records may vary slightly from our data, if they occured in-between our weather recording intervals... More about our weather records

Governador Valadares Weather History for the Previous 24 Hours

Scroll right to see more
 ConditionsComfort  
Time TempWeatherWind HumidityBarometerVisibility
8:00 am
Sat, Mar 28
64 °FSunny.5 mph83%30.12 "Hg10 mi
7:00 am63 °FSunny.3 mph88%30.12 "Hg10 mi
6:00 am63 °FClear.6 mph88%30.09 "Hg10 mi
5:00 am64 °FClear.7 mph88%30.07 "Hg10 mi
4:00 am66 °FClear.6 mph83%30.09 "Hg10 mi
3:00 am66 °FClear.6 mph83%30.09 "Hg10 mi
2:00 am66 °FClear.8 mph83%30.09 "Hg10 mi
1:00 am68 °FClear.7 mph78%30.09 "Hg10 mi
12:00 am68 °FClear.7 mph78%30.09 "Hg10 mi
11:00 pm
Fri, Mar 27
68 °FPassing clouds.7 mph78%30.09 "HgN/A
10:00 pm70 °FPassing clouds.8 mph73%30.09 "HgN/A
9:00 pm70 °FPassing clouds.8 mph78%30.09 "HgN/A
8:00 pm70 °FPassing clouds.7 mph78%30.07 "HgN/A
7:00 pm70 °FPartly cloudy.14 mph78%30.04 "HgN/A
6:00 pm72 °FPartly cloudy.13 mph73%30.04 "HgN/A
5:00 pm73 °FPartly sunny.10 mph69%30.04 "HgN/A
4:00 pm73 °FPartly sunny.8 mph69%30.04 "HgN/A
3:00 pm75 °FPartly sunny.10 mph65%30.04 "HgN/A
2:00 pm77 °FPartly sunny.7 mph65%30.07 "HgN/A
1:00 pm75 °FPartly sunny.9 mph65%30.07 "HgN/A
12:00 pm75 °FPartly sunny.5 mph65%30.09 "HgN/A
11:00 am73 °FPartly sunny.6 mph69%30.12 "HgN/A
10:00 am73 °FPartly sunny.7 mph69%30.12 "HgN/A
9:00 am70 °FPartly sunny.8 mph78%30.12 "HgN/A
Weather by CustomWeather, © 2020

See weather overview

Advertising